[[{"header":{"parameterUnit":"m.s-1","parameterCategory":1,"la1":30.2991,"la2":30.254,"lo1":-89.0895,"lo2":-89.0444,"dy":0.0017,"dx":0.0017,"nx":28,"ny":28,"refTime":"2024-08-29T03:00:00:Z","depth":0,"parameterNumber":2,"parameterNumberName":"U-component_of_WINDS"},"data":[0,0,0,0,0,0,0,0,0,0,0,0,0,0,0,0,0,0,0,0,0,0,0,0,0,0,0,0,0,0,0,0,0,0,0,0,0,0,0,0,0,0,0,0,0,0,0,0,0,0,0,0,0,0,0,0,0,0,-5.0425,-5.0425,0,-5.0466,-5.0466,-5.0466,-5.034,-5.0336,-5.0333,-5.0329,-5.0369,-5.0374,-5.0378,0,0,0,0,0,0,0,0,0,0,0,0,0,-5.0237,-5.0241,-5.0425,-5.0425,-5.0426,-5.0465,-5.0466,-5.0467,-5.0341,-5.0336,-5.0332,-5.0327,-5.0368,-5.0373,-5.0379,0,0,0,0,0,0,0,0,0,0,0,0,0,-5.0303,-5.0243,-5.0425,-5.0368,-5.0363,-5.0465,-5.0466,-5.0467,-5.0342,-5.0336,-5.033,-5.0325,-5.0366,-5.0372,-5.0379,-5.0538,0,0,-5.0401,-5.0404,0,0,0,0,0,0,0,0,-5.0299,-5.031,-5.0376,-5.0372,-5.0367,-5.0392,-5.0414,-5.049,-5.0343,-5.035,-5.0329,-5.0322,-5.0381,-5.0387,-5.0407,-5.054,-5.0541,-5.0401,-5.0406,-5.0409,-5.041,0,0,0,0,0,0,0,-5.0295,-5.0307,-5.0441,-5.0377,-5.0372,-5.034,-5.0343,-5.0428,-5.0397,-5.0349,-5.034,-5.0347,-5.0378,-5.04,-5.0407,-5.0542,-5.0401,-5.0407,-5.0412,-5.0414,-5.0807,-5.0813,0,0,0,0,0,0,-5.0298,-5.0304,-5.0439,-5.0442,-5.0318,-5.0348,-5.0351,-5.039,-5.0396,-5.0392,-5.0351,-5.0341,-5.0391,-5.0399,-5.0408,-5.0593,-5.0408,-5.0415,-5.0419,-5.08,-5.0808,-5.0815,0,0,0,0,0,0,-5.0294,-5.0311,-5.0438,-5.0371,-5.0384,-5.0358,-5.0402,-5.0394,-5.0416,-5.0398,-5.0392,-5.038,-5.0387,-5.0398,-5.0506,-5.0592,-5.0418,-5.0424,-5.0793,-5.0803,-5.0811,-5.0965,0,0,0,0,0,0,-5.0289,-5.031,-5.037,-5.0373,-5.0389,-5.0536,-5.0407,-5.0399,-5.0429,-5.0415,-5.0423,-5.0419,-5.0383,-5.0497,-5.0513,-5.0599,-5.043,-5.0785,-5.0797,-5.0808,-5.0952,-5.0978,-5.1001,0,0,0,0,0,-5.0283,-5.0411,-5.0374,-5.0391,-5.0463,-5.0542,-5.055,-5.0507,-5.0436,-5.0496,-5.0484,-5.0419,-5.0581,-5.0509,-5.0527,-5.0615,-5.0779,-5.0794,-5.0808,-5.0941,-5.0973,-5.1,0,0,0,0,0,0,-5.0418,-5.0411,-5.0369,-5.0502,-5.0524,-5.052,-5.0594,-5.0542,-5.0584,-5.0569,-5.0513,-5.0516,-5.0635,-5.0636,-5.0556,-5.0769,-5.0668,-5.0686,-5.0763,-5.0794,-5.0818,-5.0814,-5.0436,0,0,0,0,0,-5.0464,-5.0529,-5.0519,-5.0637,-5.065,-5.0621,-5.0654,-5.0619,-5.0638,-5.0646,-5.0643,-5.0664,-5.0719,-5.0757,-5.0807,-5.0953,-5.0952,-5.1023,-5.1047,-5.1067,-5.1083,-5.116,-5.119,-5.0861,-5.0861,-5.086,0,0,-5.0558,-5.0562,-5.0606,-5.0665,-5.0677,-5.0745,-5.0629,-5.0706,-5.0756,-5.0658,-5.0759,-5.0759,-5.0778,-5.0906,-5.0962,-5.0911,-5.1174,-5.1085,-5.1101,-5.1106,-5.1177,-5.1208,-5.1236,-5.087,-5.0869,-5.0867,0,0,-5.0764,-5.0775,-5.0874,-5.089,-5.091,-5.089,-5.0915,-5.092,-5.0915,-5.1017,-5.0945,-5.1004,-5.1101,-5.1118,-5.1139,-5.1355,-5.1296,-5.1373,-5.15,-5.1576,-5.1601,-5.1624,-5.17,-5.1728,-5.139,-5.139,-5.139,0,-5.0878,-5.0978,-5.0932,-5.1014,-5.1042,-5.0958,-5.1058,-5.1075,-5.1111,-5.1132,-5.1075,-5.1195,-5.1203,-5.1333,-5.1386,-5.1407,-5.1432,-5.1371,-5.1602,-5.1624,-5.1644,-5.1716,-5.1745,-5.1399,-5.1398,-5.1397,-5.1396,0,-5.1117,-5.1188,-5.1266,-5.1304,-5.1341,-5.1432,-5.1399,-5.1442,-5.1405,-5.1391,-5.1496,-5.1503,-5.1553,-5.1582,-5.1546,-5.1708,-5.1675,-5.1611,-5.1508,-5.1686,-5.1752,-5.1779,-5.1412,-5.1409,-5.1406,-5.1404,0,0,-5.1407,-5.142,-5.1449,-5.1465,-5.1483,-5.1537,-5.1625,-5.1674,-5.1712,-5.1741,-5.1812,-5.1897,-5.1838,-5.1863,-5.1829,-5.1896,-5.2065,-5.1823,-5.1822,-5.1866,-5.2243,-5.2289,-5.2322,-5.2027,-5.2032,-5.2036,-5.2241,0,-5.1608,-5.1758,-5.172,-5.1869,-5.1934,-5.1856,-5.1932,-5.1952,-5.1942,-5.1996,-5.1984,-5.2045,-5.1964,-5.1978,-5.2041,-5.2031,-5.2139,-5.2016,-5.2092,-5.2095,-5.2087,-5.2357,-5.2406,-5.2598,-5.2266,-5.2271,-5.2274,0,-5.1863,-5.1902,-5.2058,-5.2066,-5.2092,-5.2161,-5.2204,-5.2257,-5.2277,-5.2265,-5.2295,-5.2248,-5.2334,-5.2233,-5.2351,-5.2268,-5.2297,-5.2297,-5.2304,-5.2307,-5.2194,-5.2365,-5.2658,-5.2686,-5.2314,-5.2311,-5.2308,0,-5.2056,-5.2149,-5.2254,-5.227,-5.2283,-5.2334,-5.2341,-5.2356,-5.2389,-5.2427,-5.2448,-5.2496,-5.2521,-5.2559,-5.2526,-5.2456,-5.265,-5.2545,-5.2641,-5.2642,-5.2683,-5.268,-5.2983,-5.2706,-5.2706,-5.2705,-5.2705,0,-5.2284,-5.2382,-5.2341,-5.2405,-5.2513,-5.2469,-5.2576,-5.2575,-5.259,-5.2652,-5.2589,-5.2649,-5.2603,-5.266,-5.2635,-5.2736,-5.2749,-5.2741,-5.2733,-5.2745,-5.2746,-5.2762,-5.2747,-5.2713,-5.2711,-5.271,-5.2708,0,-5.2517,-5.2494,-5.2603,-5.2607,-5.261,-5.2689,-5.2692,-5.2752,-5.2739,-5.2819,-5.2835,-5.2814,-5.2878,-5.2849,-5.2916,-5.2899,-5.3029,-5.3004,-5.3022,-5.3014,-5.3111,-5.3102,-5.3432,-5.3473,-5.3172,-5.3175,-5.3178,0,-5.2662,-5.2736,-5.2749,-5.2787,-5.2799,-5.2861,-5.2894,-5.2854,-5.2892,-5.2922,-5.2978,-5.3036,-5.308,-5.3185,-5.3175,-5.3226,-5.3201,-5.3313,-5.3207,-5.3218,-5.32,-5.3195,-5.3202,-5.3333,-5.3337,-5.334,-5.3342,0,-5.2923,-5.2908,-5.2959,-5.3007,-5.3049,-5.3085,-5.3115,-5.315,-5.3111,-5.3157,-5.3221,-5.3255,-5.3324,-5.3382,-5.3427,-5.3434,-5.3382,-5.3376,-5.34,-5.3413,-5.3419,-5.3416,-5.3077,-5.3368,-5.3365,-5.3363,-5.3362,-5.3361,-5.3115,-5.3177,-5.3196,-5.3255,-5.3274,-5.3304,-5.336,-5.3355,-5.3408,-5.3461,-5.3435,-5.351,-5.353,-5.3585,-5.36,-5.3657,-5.3613,-5.3649,-5.3657,-5.3666,-5.3679,-5.3413,-5.3666,-5.3665,-5.3664,-5.3664,-5.3663,0,-5.337,-5.3379,-5.3435,-5.3479,-5.3526,-5.3475,-5.3506,-5.3548,-5.3615,-5.3639,-5.3684,-5.3758,-5.3815,-5.3812,-5.3864,-5.3911,-5.3888,-5.3926,-5.392,-5.3923,-5.3716,-5.3689,-5.3943,-5.3943,-5.3943,-5.3943,-5.3943,-5.3943,-5.3509,-5.3611,-5.3599,-5.371,-5.3718,-5.3791,-5.3813,-5.3841,-5.3859,-5.3945,-5.3992,-5.399,-5.4003,-5.4056,-5.4106,-5.4103,-5.4125,-5.4171,-5.4159,-5.3965,-5.3938,-5.3911,-5.3885,-5.4176,-5.4177,-5.4361,-5.4363,-5.4364]},{"header":{"parameterUnit":"m.s-1","parameterCategory":1,"la1":30.2991,"la2":30.254,"lo1":-89.0895,"lo2":-89.0444,"dy":0.0017,"dx":0.0017,"nx":28,"ny":28,"refTime":"2024-08-29T03:00:00:Z","depth":0,"parameterNumber":3,"parameterNumberName":"V-component_of_WINDS"},"data":[0,0,0,0,0,0,0,0,0,0,0,0,0,0,0,0,0,0,0,0,0,0,0,0,0,0,0,0,0,0,0,0,0,0,0,0,0,0,0,0,0,0,0,0,0,0,0,0,0,0,0,0,0,0,0,0,0,0,0.3026,0.3026,0,0.3063,0.3063,0.3064,0.3045,0.3044,0.3043,0.3042,0.3078,0.308,0.3082,0,0,0,0,0,0,0,0,0,0,0,0,0,0.294,0.2941,0.3026,0.3027,0.3027,0.3063,0.3063,0.3064,0.3045,0.3044,0.3042,0.3041,0.3078,0.308,0.3082,0,0,0,0,0,0,0,0,0,0,0,0,0,0.2977,0.2942,0.3026,0.3022,0.3022,0.3063,0.3063,0.3064,0.3045,0.3044,0.3042,0.3041,0.3077,0.308,0.3083,0.313,0,0,0.3091,0.3093,0,0,0,0,0,0,0,0,0.2975,0.298,0.3022,0.3022,0.3022,0.3048,0.3046,0.3086,0.3045,0.3036,0.3042,0.304,0.3069,0.3073,0.3083,0.3131,0.3133,0.3092,0.3093,0.3095,0.3095,0,0,0,0,0,0,0,0.2972,0.2978,0.3041,0.3023,0.3023,0.3018,0.3022,0.3054,0.3061,0.3037,0.3036,0.304,0.3069,0.308,0.3084,0.3133,0.3092,0.3094,0.3096,0.3097,0.3225,0.3227,0,0,0,0,0,0,0.297,0.2976,0.3039,0.3042,0.2994,0.3021,0.3025,0.3041,0.306,0.3062,0.3041,0.3039,0.3076,0.308,0.3085,0.3143,0.3095,0.3097,0.3099,0.3224,0.3226,0.3228,0,0,0,0,0,0,0.2968,0.2976,0.3038,0.3009,0.3016,0.3024,0.3042,0.3043,0.3053,0.3064,0.3065,0.3052,0.3075,0.3081,0.3119,0.3144,0.3098,0.3101,0.3222,0.3224,0.3227,0.3258,0,0,0,0,0,0,0.2966,0.2975,0.2993,0.3009,0.3018,0.3072,0.3044,0.3044,0.3059,0.3056,0.3073,0.3075,0.3074,0.3115,0.3122,0.3147,0.3103,0.3219,0.3223,0.3226,0.3255,0.3261,0.3267,0,0,0,0,0,0.2963,0.2999,0.2994,0.3001,0.304,0.3073,0.3078,0.3077,0.3061,0.3079,0.3086,0.3074,0.314,0.3119,0.3127,0.3153,0.3218,0.3222,0.3226,0.3252,0.326,0.3267,0,0,0,0,0,0,0.2984,0.3001,0.2995,0.3038,0.3055,0.307,0.3092,0.3085,0.3106,0.3103,0.31,0.3105,0.3145,0.3153,0.3129,0.3201,0.3176,0.3182,0.3194,0.3202,0.3208,0.3205,0.3106,0,0,0,0,0,0.2994,0.3019,0.3033,0.307,0.3078,0.3084,0.3098,0.3097,0.3113,0.312,0.3129,0.3146,0.317,0.3186,0.3209,0.3256,0.3261,0.3278,0.3284,0.3289,0.3294,0.3321,0.333,0.324,0.324,0.324,0,0,0.3014,0.3027,0.3043,0.3074,0.3087,0.3114,0.309,0.3118,0.3139,0.3124,0.3161,0.3169,0.3188,0.3231,0.3251,0.3239,0.332,0.3294,0.3298,0.33,0.3326,0.3335,0.3342,0.3243,0.3242,0.3242,0,0,0.3065,0.3077,0.311,0.3123,0.3143,0.3147,0.3155,0.3172,0.3177,0.3215,0.3205,0.3229,0.3271,0.3286,0.3298,0.3358,0.3349,0.3366,0.3397,0.3424,0.3431,0.3437,0.346,0.3468,0.337,0.3371,0.3371,0,0.3088,0.3128,0.3127,0.3158,0.3173,0.3162,0.3196,0.3209,0.3235,0.3246,0.3232,0.3287,0.3298,0.3346,0.3361,0.3371,0.3381,0.3363,0.343,0.3437,0.3442,0.3464,0.3473,0.3373,0.3372,0.3372,0.3372,0,0.3156,0.3184,0.3208,0.3235,0.3253,0.3285,0.329,0.3308,0.3305,0.3311,0.3351,0.3365,0.3392,0.3403,0.34,0.3451,0.3444,0.343,0.3406,0.3453,0.3473,0.3482,0.3375,0.3375,0.3374,0.3374,0,0,0.3219,0.3247,0.3256,0.327,0.3292,0.3314,0.3346,0.3373,0.339,0.3409,0.3437,0.3474,0.3463,0.3477,0.3476,0.35,0.3549,0.3484,0.3484,0.3496,0.3608,0.3618,0.3628,0.3543,0.3545,0.3546,0.3607,0,0.3272,0.333,0.3331,0.3384,0.3411,0.3402,0.3431,0.3448,0.3455,0.348,0.3487,0.3514,0.3497,0.3506,0.3529,0.3538,0.3571,0.3533,0.357,0.3571,0.3566,0.3638,0.3649,0.3706,0.3615,0.3616,0.3617,0,0.3342,0.3365,0.342,0.3441,0.3453,0.3478,0.3505,0.3528,0.3548,0.3552,0.357,0.3566,0.36,0.3575,0.3623,0.3597,0.3613,0.362,0.3622,0.3625,0.3597,0.3645,0.3724,0.3733,0.3629,0.3628,0.3628,0,0.3384,0.3429,0.3469,0.348,0.3505,0.3523,0.3535,0.3553,0.3571,0.3594,0.3605,0.3632,0.3647,0.3668,0.3672,0.3653,0.3721,0.3695,0.3726,0.3726,0.374,0.3739,0.3823,0.3749,0.3749,0.3749,0.3748,0,0.3444,0.3478,0.3488,0.3513,0.3552,0.3554,0.3593,0.3603,0.362,0.3647,0.3641,0.3667,0.367,0.3697,0.37,0.3741,0.3747,0.3752,0.3752,0.3753,0.3752,0.3763,0.3759,0.3751,0.375,0.375,0.3749,0,0.3498,0.3505,0.3548,0.3569,0.3576,0.3604,0.3622,0.3646,0.3653,0.3688,0.3696,0.3707,0.3739,0.3745,0.3782,0.3784,0.3833,0.3829,0.3826,0.3826,0.3856,0.3854,0.3951,0.3964,0.388,0.3881,0.3882,0,0.3535,0.3562,0.3587,0.3605,0.3617,0.3646,0.3664,0.3668,0.3688,0.3714,0.3736,0.3766,0.3791,0.3842,0.3854,0.3883,0.388,0.3912,0.3884,0.3885,0.3882,0.3881,0.3884,0.3918,0.3918,0.3919,0.392,0,0.3602,0.3605,0.3632,0.3661,0.3683,0.3705,0.3727,0.3742,0.3749,0.3771,0.3804,0.3823,0.3862,0.3894,0.3923,0.3935,0.3929,0.3929,0.3937,0.3938,0.3936,0.3939,0.3842,0.3926,0.3926,0.3925,0.3925,0.3925,0.3649,0.3674,0.3696,0.3726,0.3743,0.3764,0.3789,0.38,0.3827,0.386,0.3861,0.3897,0.3919,0.3958,0.3972,0.4001,0.3991,0.4003,0.4006,0.401,0.4013,0.3931,0.4006,0.4006,0.4006,0.4006,0.4005,0,0.3717,0.3731,0.3759,0.3791,0.3815,0.3809,0.3833,0.3854,0.3886,0.3907,0.3933,0.3971,0.4002,0.4018,0.4049,0.4069,0.4068,0.4078,0.4076,0.408,0.4019,0.4009,0.4079,0.4079,0.4079,0.4078,0.4078,0.4078,0.3755,0.3796,0.3803,0.3854,0.3868,0.3904,0.3918,0.3938,0.3956,0.3999,0.4026,0.4036,0.4055,0.4088,0.4117,0.4121,0.4133,0.4145,0.4147,0.4091,0.4083,0.4076,0.4067,0.4147,0.4147,0.4205,0.4206,0.4206]}]]